Flag for Argentina Weather past 2 weeks in Buenos Aires, Argentina

Now
55 °F

Clear.


Feels Like: 55 °F
Forecast: 50 / 66 °F
Wind: 3 mph from West

Location: Buenos Aires Airport

Current Time: Sep 5, 2015 at 3:05:17 AM

Latest Report: Sep 5, 2015 at 2:00 AM


Visibility: 10 mi

Pressure: 30.24 "Hg

Humidity: 59%

Dew point: 41 °F

Location of Buenos AiresLocation

Historic Weather in Buenos Aires — Graph

°F

Buenos Aires temperature yesterday

Maximum temperature yesterday: 64 °F (at 4:00 PM)
Minimum temperature yesterday: 48 °F (at 7:00 AM)
Average temperature yesterday: 57 °F

Past Weeks' High & Low Weather Summary

 TemperatureHumidityPressure
High77 °F (Aug 31, 2:00 PM)94% (Aug 26, 6:00 AM)30.48 "Hg (Aug 26, 6:00 AM)
Low45 °F (Sep 1, 7:00 AM)28% (Aug 27, 4:00 PM)29.71 "Hg (Aug 22, 6:00 AM)
Average59 °F67%30.04 "Hg
* Reported Aug 21 2:00 AM — Sep 5 2:00 AM, Buenos Aires, Weather by CustomWeather, © 2015

Note: Actual official high and low records may vary slightly from our data, if they occured in-between our weather recording intervals... More about our weather records

Advertising

Buenos Aires weather history for previous 24 hours

 ConditionsComfort  
Time TempWeatherWind HumidityBarometerVisibility
2:00 AM
Sat, Sep 5
55 °FClear.3 mph59%30.24 "Hg10 mi
1:00 AM55 °FClear.5 mph59%30.24 "Hg10 mi
12:00 AM57 °FClear.5 mph51%30.24 "Hg10 mi
11:00 PM
Fri, Sep 4
57 °FClear.7 mph59%30.24 "Hg10 mi
10:00 PM57 °FClear.8 mph63%30.21 "Hg10 mi
9:00 PM57 °FPassing clouds.8 mph67%30.21 "HgN/A
8:00 PM61 °FPassing clouds.8 mph63%30.21 "HgN/A
7:00 PM63 °FClear.9 mph59%30.18 "Hg10 mi
6:00 PM63 °FClear.9 mph56%30.18 "Hg10 mi
5:00 PM63 °FSunny.10 mph59%30.18 "Hg10 mi
4:00 PM64 °FSunny.10 mph52%30.18 "Hg10 mi
3:00 PM63 °FSunny.10 mph52%30.18 "Hg10 mi
2:00 PM63 °FSunny.8 mph56%30.21 "Hg10 mi
1:00 PM63 °FSunny.9 mph52%30.21 "Hg10 mi
12:00 PM61 °FSunny.9 mph55%30.24 "Hg10 mi
11:00 AM59 °FSunny.5 mph51%30.24 "Hg10 mi
10:00 AM57 °FPassing clouds.6 mph59%30.24 "HgN/A
9:00 AM54 °FSunny.7 mph72%30.24 "Hg10 mi
8:00 AM50 °FSunny.5 mph82%30.21 "Hg10 mi
7:00 AM48 °FSunny.6 mph82%30.21 "Hg10 mi
6:00 AM50 °FClear.6 mph76%30.18 "Hg10 mi
5:00 AM50 °FClear.6 mph76%30.18 "Hg10 mi
4:00 AM50 °FClear.6 mph82%30.18 "Hg10 mi
3:00 AM50 °FClear.5 mph82%30.21 "Hg10 mi
Weather by CustomWeather, © 2015

See weather overviewHow to use our weather pages